Find Starlink 31956

NORAD ID: 59930 Int'l Des: 2024-106 Owner: SPXS Country: US Constellation: starlink operational
LEOCIRCULAR

現在のビュー

3D地球を読み込み中...

About Starlink 31956

Starlink 31956 (NORAD 59930) is a starlink constellation satellite (v2 mini) launched Jun 1, 2024 by SPXS of US. It operates in LEO, CIRCULAR orbit with a mass of 730.00 kg.

Starlink 31956について

説明を読み込み中...

次回通過

Passes for default location (London). Set your location on the main map for personalized predictions.

高度履歴

Loading altitude history...

軌道要素

1 59930U 24106J 26169.91070955 -.00000479 00000-0 -78759-5 0 9992
2 59930 43.0032 120.8513 0001074 272.5498 87.5231 15.27575677116005
Epoch: Jun 18, 2026 • Age: 9 hours

現在のステータス

高度 483.0 km
速度 7.63 km/s
衛星直下点 -1.57°S, 100.49°E
打ち上げ日 Jun 1, 2024
運用期間 2 years
タイプ internet

技術仕様

分類 Payload
質量 730.00 kg
乾燥質量 700.00 kg
総質量 730.00 kg
長さ 0.30 m
直径 4.10 m
スパン 29.00 m
形状 Box + pan
製造者 SPXS
バスタイプ Starlink V2M
フェーズステータス In Orbit
所有者/国 SPXS/US

Most Searched